軌道要素
Epoch 2019 July 16.0 TT = JDT 2458680.5
T 2019 Aug. 1.90569 TT Williams
q 2.3734128 (2000.0) P Q
z -0.0000829 Peri. 16.55743 -0.17984687 -0.63659002
+/-0.0000476 Node 270.51702 -0.96597742 -0.02974993
e 1.0001967 Incl. 131.41228 -0.18585675 +0.77062837
From 197 observations 2019 May 14-Aug. 21, mean residual 0".5.
|